www.pogodaiklimat.ru

Погода и климат >> Архив погоды >> Россия >> Якутия >> Шелагонцы


ПОГОДА в Шелагонцах

  • Прогноз погоды в Шелагонцах
  • Монитор погоды в Шелагонцах
  • Климат города

АРХИВ ПОГОДЫ в Шелагонцах

Время (UTC), дата Ветер
(напр.,м/с)
 
Видим.   Явления Облачность Т
(С)
Тd
(С)
f
(%)
Тe
(С)
Тes
(С)
Комфортность P
(гПа)
Po
(гПа)
Тmin
(С)
Tmax
(С)
R
(мм)
R24
(мм)
S
(см)
18 19.06 З 3 50 км 10/10 1000 м
[Sc]
+15.1 +10.1 72 +14 +14 1006.8 979.2
21 19.06 штиль 0 50 км 10/10 1000 м
[Sc]
+13.6 +11.3 86 +13 +13 1006.7 979.0
00 20.06 штиль 0 50 км 10/10 1000 м
[Sc]
+14.0 +10.6 80 +14 +14 1006.4 978.7 +12.1
03 20.06 штиль 0 50 км 10/10 1000 м
[Sc]
+18.6 +13.3 71 +19 +19 1005.5 978.3
06 20.06 З 1 50 км 10/10 1000 м
[Sc]
+20.3 +13.9 67 +24 +24 комфорт 1005.0 978.0
09 20.06 СЗ 3 50 км 10/10 600 м
[Cb cap]
+22.0 +14.6 63 +25 +25 комфорт 1004.9 978.1
12 20.06 штиль 0 50 км 9/4 600 м
[Sc diur, vesp Ac trans]
+18.7 +14.8 78 +20 +20 1006.0 978.9 +23.0
15 20.06 СВ 1 50 км 8/6 600 м
[Cb cap Ci fib]
+16.9 +15.2 90 +18 +18 1005.5 978.2
18 20.06 СЗ 2 50 км {ливн. осадки} 9/3 600 м
[Cb cap Ac cast Ci sp]
+15.0 +13.9 93 +15 +15 1004.8 977.3
21 20.06 ЮВ 1 50 км {гроза, ливн. осадки} 6/3 600 м
[Cb cap Ac cast]
+11.5 +14.7 100 +11 +12 1004.3 976.8
00 21.06 В 1 20 км слабый ливневой дождь {гроза} 10/10 600 м
[Cb cap]
+17.5 +16.3 93 +19 +19 1003.7 976.5 +14.0 10
03 21.06 СВ 2 50 км {ливн. осадки} 3/0
[Ci fib]
+22.7 +18.3 76 +28 +39 душно 1002.0 976.1
06 21.06 С 2 50 км {ливн. осадки} 10/0
[Ac As]
+27.4 +17.4 54 +31 +35 душно 1000.2 974.0
09 21.06 СЗ 4 50 км 8/3 1000 м
[Cu med, cong Ci fib]
+30.0 +12.6 34 +31 +33 жарко 999.2 973.2
12 21.06 З 2 50 км 8/0
[Ci fib]
+29.6 +12.2 34 +30 +31 жарко 999.1 973.0 +30.8 0.0
15 21.06 З 1 50 км 10/10 600 м
[Cb cap]
+19.1 +16.4 84 +22 +22 комфорт 1000.2 973.2
18 21.06 Ю 3
{15}
20 км слабый ливневой дождь {гроза} 10/10 600 м
[Cb cap]
+18.2 +14.4 78 +19 +19 1001.6 974.5
21 21.06 В 2 50 км {ливн. осадки} 8/0
[Ac cast Ci fib]
+17.6 +15.2 86 +18 +19 1000.7 973.6
00 22.06 С 1 50 км {ливн. осадки} 8/0
[Ac cast Ci fib]
+22.0 +16.1 69 +26 +31 душно 1001.0 974.2 +16.4 0.7
03 22.06 Ю 2 50 км 8/0
[Ci fib]
+28.4 +16.0 47 +32 +41 душно 998.7 972.6
06 22.06 ЮЗ 3 50 км 6/0
[Ci fib]
+33.0 +9.3 23 +32 +40 жарко 996.7 970.8
09 22.06 З 4 50 км 10/3 1000 м
[Cb cap Ci fib]
+32.6 +8.6 23 +31 +34 жарко 995.1 969.3
12 22.06 Ю 2 50 км 8/0
[Ci fib]
+32.2 +10.9 27 +32 +33 жарко 993.4 967.6 +33.5
15 22.06 Ю 2 50 км 8/4 600 м
[Cb cap Ci fib]
+24.0 +13.6 52 +26 +26 жарко 993.0 966.7
18 22.06 З 2 50 км 8/3 600 м
[Cb cap Ci fib]
+25.0 +11.0 41 +26 +26 жарко 992.7 966.5
21 22.06 З 1 50 км 8/0
[Ac cast Ci fib]
+21.0 +14.7 67 +25 +26 комфорт 994.0 967.3
00 23.06 З 1 50 км 8/0
[Ac cast Ci fib]
+25.4 +15.7 55 +29 +33 душно 993.3 967.1 +18.7
03 23.06 З 5 50 км 8/8 600 м
[Cb cap]
+26.5 +11.9 40 +28 +29 жарко 993.2 967.0
06 23.06 З 6-11
{14}
50 км 9/8 600 м
[Cb cap Ac cast]
+21.9 +11.1 50 +24 +24 комфорт 996.4 969.7
09 23.06 С 6-11
{14}
50 км 8/8 600 м
[Cb cap]
+18.2 +12.3 68 +18 +18 1001.0 973.9
12 23.06 СЗ 5
{13}
50 км 10/10 1000 м
[Sc]
+12.9 +8.5 75 +11 +11 1007.1 979.3 +26.5
15 23.06 СЗ 4 50 км 10/10 600 м
[Sc]
+8.8 +3.5 69 +6 +6 1011.0 982.3
18 23.06 С 3 50 км 10/10 600 м
[Sc]
+7.2 +4.4 82 +4 +4 1012.7 984.1
21 23.06 СЗ 3 50 км 10/10 1000 м
[Sc]
+6.4 +3.1 79 +3 +3 1014.5 985.7
00 24.06 СВ 2 50 км 10/10 1000 м
[Sc]
+6.4 +3.3 81 +4 +4 1015.7 986.9 +5.0
03 24.06 СВ 2 50 км 8/4 600 м
[Cu hum Ci fib]
+10.2 +3.9 65 +9 +15 1015.4 987.1
06 24.06 В 1 50 км 8/0
[Ci sp]
+16.0 +1.7 38 +17 +28 1014.2 985.4
09 24.06 СЗ 1 50 км ясно +19.0 +0.9 30 +20 +27 1013.4 985.9
12 24.06 штиль 0 50 км ясно +19.5 +1.1 29 +20 +21 1013.7 986.2 +20.0
15 24.06 Ю 1 50 км ясно +10.8 +6.6 75 +11 +11 1014.7 985.5
18 24.06 Ю 1 50 км ясно -0.4 -0.4 100 -3 -3 1017.1 987.6
21 24.06 штиль 0 50 км ясно +3.5 +0.3 80 +3 +4 1017.5 988.4
00 25.06 С 1 50 км ясно +13.0 +3.7 53 +13 +20 1015.9 987.9 -0.9
03 25.06 СВ 2 50 км ясно +20.8 +1.1 27 +22 +33 комфорт 1013.8 986.5
06 25.06 СВ 2 50 км ясно +23.6 +1.5 23 +23 +34 комфорт 1011.2 984.3
09 25.06 В 3 50 км 1/0
[Ci sp]
+25.8 +0.4 19 +24 +29 комфорт 1009.5 982.8
12 25.06 ЮВ 2 50 км 3/0
[Ci sp]
+24.7 +2.9 24 +24 +25 комфорт 1008.4 981.7 +26.8
15 25.06 ЮВ 2 50 км 8/0
[Ci sp]
+19.1 +7.3 46 +20 +20 1008.4 981.1
18 25.06 штиль 0 50 км 9/0
[Ac lent Cc]
+5.0 +4.8 99 +4 +4 1009.7 981.0
21 25.06 штиль 0 50 км 8/0
[Ac trans Ci fib]
+8.0 +5.8 86 +7 +8 1008.7 980.3
00 26.06 штиль 0 50 км 8/0
[Ac trans]
+10.9 +6.9 76 +10 +14 1007.6 979.5 +2.8
03 26.06 С 1 50 км 10/0
[Ac trans Ci fib]
+19.3 +10.4 56 +21 +29 комфорт 1004.8 977.7
06 26.06 В 2 50 км 10/6 1000 м
[Sc Ac As]
+21.1 +11.8 55 +23 +24 комфорт 1003.4 976.5
09 26.06 ЮВ 1 20 км слабый ливневой дождь 10/10 600 м
[Cb cap]
+17.8 +12.0 69 +19 +19 1003.8 976.5
12 26.06 штиль 0 50 км в посл. час ливневой дождь 10/10 600 м
[Cb cap]
+15.6 +14.4 93 +15 +15 1002.8 975.4 +21.2 0.7
15 26.06 штиль 0 50 км {ливн. осадки} 10/10 600 м
[Cb cap]
+14.4 +13.9 97 +14 +14 1002.5 975.0

 

Местоположение метеостанции Шелагонцы (Якутия, Россия): широта 66.25 долгота 114.20 высота над уровнем моря 236 м.

В архиве по умолчанию представлена погода в Шелагонцах за последнюю неделю. Архивные данные за месяц целиком и за предыдущие месяцы, начиная с января 2011 года, Вы можете получить, выбрав интересующий диапазон дат из раскрывающегося списка и нажав кнопку "Ввод!".

Внимание! Время в таблицах - всемирное. Для получения местного времени необходимо прибавить поправку, которая в Шелагонцах равна 9 ч.

Смотрите также архив погоды в соседних городах и на ближайших метеорологических станциях:

Погода в Полярном (Якутия, Россия) (96 км)
Погода в Эйке (Якутия, Россия) (146 км)
Погода в Хабардино (Якутия, Россия) (200 км)
Погода в Чумпуруке (Якутия, Россия) (257 км)
Погода в Оленеке (Якутия, Россия) (262 км)
Погода в Ярольине (Якутия, Россия) (269 км)
Погода в Сухане (Якутия, Россия) (316 км)
Погода в Чернышевском (Якутия, Россия) (368 км)
Погода в Нюрбе (Якутия, Россия) (383 км)
Погода в Жиганске (Якутия, Россия) (407 км)

Пояснения к столбцам:

Ветер - указаны скорость ветра в м/с - средняя за 10 мин, порывы в срок и между сроками (в фигурных скобках) и направление, откуда дует ветер: С - северный, СВ - северо-восточный, В - восточный, ЮВ - юго-восточный, Ю - южный, ЮЗ - юго-западный, З - западный, СЗ - северо-западный.
Видимость - горизонтальная дальность видимости в метрах или километрах. При видимости от 1 до 10 км при отсутствии осадков обычно наблюдается дымка, при ухудшении видимости до 1 км и менее - туман. В сухую погоду видимость может ухудшаться дымом, пылью или мглою.
Явления - указаны атмосферные явления, наблюдавшиеся в срок или в последний час перед сроком; фигурными скобками обозначены явления, наблюдавшиеся между сроками (за 1-3 часа до срока); квадратными скобками обозначены град или гололедные отложения с указанием их диаметра в мм.
Облачность - указаны через наклонную черту общая и нижняя облачность в баллах и высота нижней границы облаков в метрах; квадратными скобками обозначены формы облаков: Ci - перистые, Cs - перисто-слоистые, Cc - перисто-кучевые, Ac - высококучевые, As - высокослоистые, Sc - слоисто-кучевые, Ns - слоисто-дождевые, Cu - кучевые, Cb - кучево-дождевые. Подробнее классификацию облаков см. в Атласе облаков (PDF).
T - Температура воздуха - температура, измеренная на высоте 2 м над землей.
Td - Температура точки росы - температура, при понижении до которой содержащийся в воздухе водяной пар достигнет насыщения.
f - Относительная влажность воздуха - влажноcть воздуха, измеренная на высоте 2 м над землей.
Te - Эффективная температура - температура, которую ощущает одетый по сезону человек в тени. Характеристика душности погоды. При расчете учитывается влияние влажности воздуха и скорости ветра на теплоощущения человека.
Tes - Эффективная температура на солнце - температура, которую ощущает человек, с поправкой на солнечный нагрев. Характеристика знойности погоды. Зависит от высоты солнца над горизонтом, облачности и скорости ветра. Ночью, в пасмурную погоду, а также при ветре 12 м/с и более поправка равна нулю.
P - Атмосферное давление - приведенное к уровню моря атмосферное давление.
Po - Атмосферное давление - измеренное на уровне метеостанции атмосферное давление.
Tmin - Минимальная температура - минимум температуры воздуха на высоте 2 м над землей.
Tmax - Максимальная температура - максимум температуры воздуха на высоте 2 м над землей.
R - Количество осадков - Количество выпавших осадков за период времени, мм. При наведении курсора мыши на число - период времени, за который выпало указанное количество осадков.
R24 - Количество осадков - Количество выпавших осадков за 24 часа, мм.
S - Снежный покров - Высота снежного покрова, см. При наведении курсора мыши на число - состояние снежного покрова и степень покрытия местности в баллах.